Temperature
-4 -4 -4 -5 -5 -5 -6 -5 -5 -4 -5 -5 -5 -5 -5 -4 -4 -4 -4 -4 -4 -3 -3 -3 -2 -2 -2 -2 -2 -1 -1 -1 -1 -1 -1 -1 -0 -0 0 0 0 0 1 1
-5 -4 -4 -4 -5 -5 -6 -6 -6 -6 -5 -5 -5 -5 -5 -5 -5 -5 -4 -4 -4 -4 -4 -4 -3 -3 -2 -2 -2 -2 -2 -2 -2 -1 -1 -1 -1 -1 -1 -1 -0 -0 -0 0
-4 -5 -4 -4 -6 -6 -7 -7 -7 -6 -6 -6 -6 -6 -6 -5 -5 -5 -5 -5 -5 -5 -4 -4 -4 -3 -3 -3 -3 -2 -2 -2 -2 -2 -2 -2 -2 -2 -1 -1 -1 -1 -1 -1
-5 -5 -3 -4 -6 -6 -6 -7 -8 -7 -7 -7 -6 -6 -5 -5 -5 -5 -5 -5 -5 -5 -5 -4 -4 -4 -4 -3 -3 -3 -3 -3 -3 -3 -3 -2 -2 -2 -2 -2 -2 -2 -2 -1
-6 -6 -5 -5 -6 -7 -7 -7 -7 -8 -8 -7 -7 -6 -6 -5 -5 -6 -6 -5 -5 -5 -5 -5 -4 -4 -4 -4 -4 -4 -4 -3 -3 -3 -3 -3 -3 -3 -3 -3 -3 -2 -2 -2
-7 -5 -4 -5 -7 -7 -7 -6 -6 -7 -8 -8 -8 -8 -7 -5 -6 -6 -6 -6 -6 -5 -5 -5 -5 -5 -5 -5 -4 -4 -4 -4 -4 -4 -4 -3 -3 -3 -3 -3 -3 -3 -3 -3
-7 -6 -6 -7 -7 -7 -6 -5 -6 -6 -7 -7 -8 -7 -6 -6 -6 -6 -6 -6 -6 -6 -6 -5 -5 -5 -5 -5 -5 -5 -5 -4 -4 -4 -4 -4 -4 -4 -4 -4 -4 -4 -3 -3
-8 -7 -6 -7 -8 -7 -6 -6 -6 -6 -6 -6 -6 -6 -6 -6 -6 -6 -6 -6 -6 -6 -6 -6 -6 -6 -6 -5 -5 -5 -5 -5 -5 -5 -5 -4 -4 -4 -4 -4 -4 -4 -4 -4
-8 -6 -6 -7 -6 -6 -6 -6 -6 -6 -6 -7 -7 -7 -7 -7 -7 -7 -7 -7 -7 -7 -6 -6 -6 -6 -6 -6 -6 -6 -6 -5 -5 -5 -5 -5 -5 -5 -5 -5 -5 -5 -5 -5
-9 -8 -7 -7 -6 -6 -6 -6 -6 -6 -7 -7 -7 -7 -7 -7 -7 -7 -7 -7 -7 -7 -7 -6 -6 -6 -6 -6 -6 -6 -6 -6 -6 -6 -5 -5 -6 -6 -5 -5 -5 -5 -5 -5
-9 -9 -8 -6 -6 -5 -6 -6 -6 -6 -7 -7 -7 -7 -7 -7 -7 -7 -7 -7 -7 -7 -7 -7 -7 -7 -7 -7 -7 -7 -7 -7 -7 -6 -6 -6 -6 -6 -6 -6 -6 -6 -6 -6
-8 -7 -8 -6 -5 -6 -6 -6 -7 -7 -7 -7 -7 -8 -8 -8 -8 -8 -8 -7 -7 -7 -7 -7 -7 -7 -7 -7 -7 -7 -7 -7 -7 -7 -7 -7 -7 -6 -6 -6 -6 -6 -6 -6
-6 -6 -6 -6 -6 -6 -7 -7 -7 -7 -7 -8 -8 -8 -8 -8 -8 -8 -8 -8 -8 -8 -8 -8 -8 -8 -8 -8 -8 -8 -7 -7 -7 -7 -7 -7 -7 -7 -7 -6 -7 -7 -6 -6
-6 -7 -7 -6 -6 -6 -7 -7 -7 -7 -8 -8 -8 -8 -8 -8 -8 -8 -8 -8 -8 -8 -8 -8 -8 -8 -8 -8 -8 -8 -8 -8 -8 -8 -8 -8 -8 -8 -7 -7 -7 -7 -7 -7
-6 -7 -7 -7 -7 -7 -7 -7 -8 -8 -8 -8 -8 -8 -8 -8 -8 -8 -8 -8 -8 -8 -8 -8 -8 -8 -8 -8 -8 -8 -8 -8 -8 -8 -8 -8 -8 -8 -8 -8 -7 -7 -7 -7
-7 -7 -7 -7 -7 -7 -7 -8 -8 -8 -8 -8 -8 -9 -9 -9 -9 -9 -9 -9 -9 -9 -9 -9 -9 -8 -9 -8 -8 -8 -8 -8 -8 -8 -8 -8 -8 -8 -8 -8 -8 -8 -8 -8
-7 -7 -7 -7 -7 -8 -8 -8 -8 -9 -9 -9 -9 -9 -9 -9 -9 -9 -9 -9 -9 -9 -9 -9 -9 -9 -9 -9 -9 -9 -9 -9 -9 -9 -9 -9 -9 -9 -8 -8 -8 -8 -8 -8
-7 -7 -7 -8 -8 -8 -8 -8 -8 -9 -9 -9 -9 -9 -9 -10 -10 -9 -9 -9 -9 -9 -9 -9 -9 -9 -9 -9 -9 -9 -9 -9 -9 -9 -9 -9 -9 -9 -9 -9 -9 -9 -9 -9
-7 -7 -8 -8 -8 -8 -8 -8 -9 -9 -9 -9 -10 -10 -10 -10 -10 -10 -10 -10 -10 -9 -9 -9 -9 -9 -9 -9 -10 -10 -10 -9 -9 -9 -9 -9 -9 -9 -9 -9 -9 -9 -9 -9
-8 -8 -8 -8 -8 -9 -9 -9 -9 -9 -9 -10 -10 -10 -10 -10 -10 -10 -10 -10 -10 -10 -10 -10 -10 -10 -10 -10 -10 -10 -10 -10 -10 -10 -10 -10 -10 -10 -10 -10 -10 -10 -10 -10
-8 -8 -8 -8 -9 -9 -9 -9 -9 -9 -10 -10 -10 -10 -10 -10 -10 -10 -10 -10 -10 -10 -10 -10 -10 -10 -10 -10 -10 -10 -10 -10 -10 -10 -10 -10 -10 -10 -10 -10 -10 -10 -10 -10
-8 -9 -9 -9 -9 -9 -9 -9 -10 -10 -10 -10 -10 -10 -10 -10 -10 -11 -11 -11 -10 -11 -11 -10 -10 -11 -11 -11 -11 -11 -10 -11 -11 -11 -11 -11 -11 -11 -11 -10 -10 -10 -10 -10
-9 -9 -9 -9 -9 -10 -10 -10 -10 -10 -10 -11 -11 -11 -11 -11 -11 -11 -11 -11 -11 -11 -11 -11 -11 -11 -11 -11 -11 -11 -11 -11 -11 -11 -11 -11 -11 -11 -11 -11 -11 -11 -11 -11
-9 -9 -9 -10 -10 -10 -10 -10 -10 -11 -11 -11 -11 -11 -11 -11 -11 -11 -11 -11 -11 -11 -11 -11 -11 -11 -11 -11 -11 -11 -11 -11 -11 -11 -11 -11 -11 -11 -11 -11 -11 -11 -11 -11
-9 -10 -10 -10 -10 -10 -10 -11 -11 -11 -11 -11 -11 -11 -11 -11 -11 -11 -11 -11 -12 -12 -11 -11 -11 -11 -11 -11 -11 -11 -11 -11 -11 -11 -11 -11 -11 -11 -11 -11 -11 -11 -11 -11
-10 -10 -10 -10 -10 -11 -11 -11 -11 -11 -11 -11 -11 -11 -12 -12 -12 -12 -12 -12 -12 -12 -12 -12 -12 -12 -12 -12 -12 -12 -12 -12 -12 -12 -12 -12 -12 -12 -12 -12 -12 -12 -12 -12
-10 -10 -10 -11 -11 -11 -11 -11 -11 -11 -12 -12 -12 -12 -12 -12 -12 -12 -12 -12 -12 -12 -12 -12 -12 -12 -12 -12 -12 -12 -12 -12 -12 -12 -12 -12 -12 -12 -12 -12 -12 -12 -12 -12
Wind_Speed
5 5 2 3 4 1 3 5 6 7 7 10 8 6 5 5 5 4 5 5 5 5 4 4 5 4 4 4 4 3 3 3 3 2 2 1 1 1 1 1 2 2 2 2
3 2 2 4 6 4 5 5 6 8 10 7 6 4 4 4 4 5 5 6 6 5 5 5 5 5 5 4 4 3 2 3 3 3 2 2 2 2 2 1 1 1 2 2
3 4 3 5 5 4 4 4 4 6 7 5 5 6 5 5 5 5 5 6 6 6 5 5 5 5 5 4 4 3 3 3 3 3 3 3 2 2 2 2 2 2 2 3
2 4 3 5 1 2 4 5 4 5 5 5 6 6 5 4 4 5 6 6 6 6 6 5 5 5 5 4 3 3 3 3 3 3 3 3 3 3 3 2 2 2 3 3
0 2 6 5 1 1 2 6 3 5 7 7 6 5 4 4 3 4 6 6 6 5 5 5 5 4 4 4 3 3 3 3 4 3 3 3 3 3 3 2 3 3 3 3
2 2 5 5 2 1 1 5 3 3 5 6 4 3 5 5 5 5 6 5 5 5 4 4 5 4 3 3 3 4 4 4 4 3 3 3 3 3 3 3 3 3 3 3
3 4 7 4 2 2 2 5 4 3 4 3 3 5 6 6 6 5 5 5 5 4 4 4 4 3 3 3 4 5 4 4 3 3 3 3 3 3 2 2 2 2 3 3
3 3 7 2 4 4 6 3 3 3 3 4 5 6 6 6 6 6 5 5 5 5 5 5 3 2 3 4 4 4 4 3 3 3 3 3 2 3 2 2 2 2 2 3
8 7 3 4 5 4 2 3 4 3 4 4 5 6 6 6 6 6 6 5 5 4 5 4 3 2 3 5 4 3 3 3 4 4 3 2 2 2 2 2 2 2 2 2
5 7 5 6 5 4 4 5 5 5 4 4 5 6 6 7 6 6 6 5 5 4 5 5 5 4 4 4 3 2 3 3 3 3 3 2 2 1 2 2 2 3 3 3
6 6 5 5 6 6 5 5 5 5 5 5 5 6 6 6 6 6 6 5 5 4 4 5 5 5 5 4 3 3 3 3 3 2 2 2 2 2 2 2 3 3 3 3
7 6 5 5 4 4 4 5 5 5 5 5 4 6 6 6 6 5 6 5 5 5 5 5 5 5 4 4 2 2 3 3 2 2 2 2 2 3 4 4 5 5 5 4
6 3 4 6 5 4 4 5 4 4 5 5 5 4 5 5 5 5 5 5 5 6 6 5 5 5 5 4 3 2 2 3 2 2 2 2 2 2 3 4 5 5 5 5
5 3 4 4 4 4 4 4 3 4 4 4 4 4 4 5 5 5 6 6 6 5 5 5 5 6 5 4 3 3 3 3 3 2 2 2 2 2 2 2 3 4 5 5
5 5 5 4 4 4 3 3 3 4 4 4 4 4 4 5 6 6 6 5 5 5 5 5 5 6 5 4 3 3 3 2 2 2 2 2 2 2 2 2 2 3 3 4
3 3 4 4 5 4 3 3 4 5 5 5 4 5 5 5 6 6 5 4 4 6 6 6 6 6 5 4 3 3 2 4 3 2 2 2 2 2 2 2 2 2 3 3
2 3 3 4 5 5 4 4 4 5 5 5 5 5 5 5 5 6 6 5 5 5 6 5 6 6 4 3 3 2 2 3 4 3 2 2 2 2 2 2 2 2 3 3
5 5 4 4 5 5 5 4 4 5 5 5 5 4 4 5 6 6 6 6 5 6 6 6 6 5 4 3 2 2 2 2 2 2 2 2 2 2 2 2 2 2 3 4
4 4 4 4 4 4 4 4 5 4 4 4 4 4 5 5 5 6 5 5 5 6 6 6 8 5 4 4 3 2 1 2 2 2 2 3 3 2 2 2 2 2 3 3
3 3 3 3 3 3 4 4 4 4 4 3 4 4 5 5 5 5 4 4 5 5 6 6 5 4 4 4 3 1 1 1 1 2 2 2 2 2 2 2 2 2 2 3
3 3 3 3 3 4 4 3 3 4 4 3 4 5 6 6 5 4 4 5 5 5 5 7 4 3 3 3 3 1 1 1 1 1 2 2 2 2 2 3 3 3 3 3
3 3 4 3 3 4 4 3 3 4 4 4 4 5 5 6 5 4 4 4 5 7 5 3 3 5 4 3 1 1 2 2 2 1 2 2 2 2 2 3 3 3 3 3
3 3 4 4 4 4 4 3 3 4 4 5 5 5 5 5 4 4 5 4 4 7 5 3 5 7 5 2 1 1 2 2 2 2 2 2 2 2 2 3 3 3 3 4
3 3 3 3 2 2 4 5 4 3 4 4 5 4 4 4 4 3 4 7 7 7 4 5 7 7 5 1 1 1 2 2 2 2 2 2 2 2 3 3 3 4 4 4
3 3 2 2 3 3 4 4 4 4 4 4 4 4 3 3 4 4 4 5 7 6 4 5 7 6 3 1 2 2 2 2 3 2 2 2 3 3 3 3 3 4 4 4
3 3 3 3 3 3 3 3 3 3 3 4 4 3 3 3 3 3 3 4 5 5 4 3 4 4 2 2 2 2 3 3 3 3 2 3 3 3 3 4 4 4 5 5
2 2 2 2 3 3 2 2 3 4 3 4 4 4 3 3 3 3 3 3 3 3 3 3 3 2 2 2 2 3 3 2 3 3 3 3 3 3 4 5 5 5 6 6
Wind_Direction
253 262 252 274 300 303 210 221 230 260 266 284 294 289 293 302 319 332 335 339 338 333 330 332 336 335 332 326 330 333 338 332 319 309 306 295 296 294 259 239 242 240 245 249
284 258 265 292 299 275 253 251 252 274 280 287 302 310 312 310 314 317 321 327 328 326 326 324 322 320 319 320 324 328 326 317 316 319 320 307 297 299 295 281 262 249 248 249
290 314 328 294 272 233 239 238 218 243 267 310 321 315 304 301 310 310 314 317 318 315 310 308 306 310 311 313 319 326 324 320 318 319 319 307 304 300 289 281 272 259 251 246
302 7 265 252 192 212 241 261 240 257 287 300 290 295 301 294 292 303 309 308 309 311 310 309 310 314 314 316 321 325 323 319 319 323 320 317 313 296 289 282 270 262 260 256
134 285 277 288 247 169 228 283 249 265 290 302 315 323 312 302 300 295 301 301 301 301 301 305 308 312 319 323 326 327 323 318 316 313 304 308 307 298 292 287 278 274 273 268
151 225 256 265 272 257 147 289 282 267 281 298 342 333 297 316 320 312 311 309 307 311 314 310 309 317 319 320 326 321 314 308 307 304 296 291 291 291 288 282 280 279 282 279
207 235 264 259 265 108 149 274 300 271 271 276 245 244 277 305 308 306 309 312 319 322 317 304 306 315 313 319 311 305 308 311 313 310 301 289 287 284 277 284 291 291 293 294
181 220 260 200 140 185 233 282 286 276 267 262 267 279 292 301 308 315 321 324 325 324 314 308 308 314 311 305 304 311 314 315 316 316 310 307 300 299 295 283 284 291 297 302
200 221 255 186 208 232 234 263 269 269 279 274 281 288 299 304 305 310 311 313 316 313 311 314 317 310 295 302 312 315 318 315 315 319 318 309 299 295 295 278 269 278 280 287
254 262 257 250 252 260 253 256 270 274 279 277 279 287 297 303 307 310 312 312 314 316 317 317 318 313 294 298 304 302 303 304 307 313 317 321 314 294 276 270 269 269 273 278
256 275 297 268 244 251 264 270 279 283 277 269 274 286 290 296 301 303 308 313 314 313 307 305 312 309 309 308 301 297 295 294 301 309 307 313 315 298 284 275 270 272 272 269
233 234 218 258 267 256 257 269 270 279 290 287 270 278 289 292 295 300 304 309 313 311 306 305 310 309 311 310 298 281 292 299 299 305 307 312 318 327 328 315 313 308 303 296
235 245 239 265 280 267 259 268 275 272 272 286 293 285 288 292 297 301 305 309 308 305 303 305 309 310 315 316 307 283 276 284 288 296 299 307 311 314 324 334 335 334 331 327
240 247 271 264 270 276 268 272 280 287 286 283 289 297 298 300 305 307 303 302 303 304 306 309 310 310 314 316 310 303 293 291 293 283 281 284 289 296 299 307 322 331 334 336
249 228 242 272 285 289 286 290 298 298 301 304 302 303 305 305 305 303 303 308 314 316 315 317 314 311 316 313 308 303 300 293 290 286 281 281 288 295 298 301 307 317 332 337
266 252 249 259 270 283 292 287 284 289 295 299 304 304 300 297 297 301 307 313 315 309 309 311 307 307 313 308 307 308 306 311 317 308 299 297 297 296 301 305 309 318 326 331
229 261 262 270 274 279 279 273 270 279 290 292 294 300 305 309 310 310 311 312 302 295 298 299 298 305 308 305 298 300 305 312 318 321 317 309 304 304 306 310 313 315 318 321
232 239 239 246 260 273 284 285 282 282 281 283 294 300 303 303 300 302 306 312 315 311 306 301 303 308 308 308 299 290 299 304 307 306 308 311 311 312 311 312 318 321 328 330
245 248 254 257 257 261 273 282 286 286 287 290 292 290 288 287 288 294 303 311 311 309 309 309 314 319 313 308 313 292 299 304 308 305 306 308 318 319 314 310 309 312 317 322
257 256 259 269 271 265 276 285 290 291 289 286 288 293 295 294 294 298 302 294 281 280 296 305 307 304 303 302 308 295 284 282 288 298 308 310 310 310 309 305 302 303 308 311
268 272 275 279 286 285 278 280 283 290 296 290 283 285 290 296 298 297 299 297 298 300 304 309 313 305 299 303 303 303 282 279 280 284 290 295 297 300 304 304 305 307 308 311
264 268 276 280 284 292 294 287 279 284 293 293 288 288 294 298 300 296 280 273 297 313 318 304 304 303 312 313 313 298 289 281 278 280 284 287 287 291 296 300 301 304 305 306
268 266 271 275 276 286 299 296 284 280 280 283 286 286 285 286 288 290 297 296 298 309 317 304 307 312 319 330 324 298 292 290 284 281 281 277 277 280 284 290 292 295 296 298
270 271 273 279 284 290 293 294 289 284 280 282 281 280 283 292 293 277 278 304 313 312 312 310 317 319 324 347 317 301 293 289 288 286 280 278 278 280 281 284 287 290 290 292
273 274 276 280 278 276 278 290 297 296 294 292 290 288 282 273 279 295 300 301 306 313 313 315 317 321 333 320 300 291 287 283 284 283 278 283 282 281 280 281 282 285 288 289
277 275 270 262 265 276 284 286 290 294 295 299 302 298 296 293 289 295 300 304 307 315 317 311 311 313 314 302 291 289 287 294 299 297 286 283 283 284 285 285 282 283 284 285
284 288 287 290 288 280 278 278 283 289 289 290 296 301 302 303 303 305 305 308 314 318 317 317 312 303 297 292 290 286 282 281 281 283 282 278 278 280 284 285 287 283 281 281
Height
1533 1530 1531 1531 1530 1530 1531 1529 1527 1519 1517 1510 1508 1506 1504 1502 1500 1498 1496 1495 1494 1493 1492 1491 1490 1490 1489 1489 1488 1488 1488 1487 1488 1488 1488 1489 1489 1490 1490 1491 1492 1493 1494 1495
1532 1529 1529 1528 1525 1526 1527 1526 1524 1520 1516 1509 1507 1505 1503 1501 1499 1497 1496 1495 1493 1492 1491 1490 1489 1488 1488 1487 1486 1486 1486 1485 1485 1485 1485 1486 1486 1486 1487 1487 1488 1489 1490 1491
1532 1530 1527 1526 1524 1525 1525 1523 1522 1520 1515 1509 1507 1504 1502 1500 1499 1497 1495 1494 1493 1491 1490 1488 1487 1486 1485 1485 1484 1484 1483 1483 1483 1483 1483 1483 1483 1483 1483 1483 1484 1485 1486 1487
1536 1532 1528 1522 1521 1521 1521 1519 1518 1514 1511 1509 1507 1504 1502 1500 1498 1496 1495 1493 1491 1489 1488 1487 1485 1484 1484 1483 1482 1481 1481 1481 1481 1480 1480 1480 1480 1480 1480 1480 1481 1481 1482 1483
1539 1538 1529 1521 1520 1521 1522 1517 1513 1512 1509 1507 1504 1502 1500 1499 1498 1496 1494 1491 1489 1488 1486 1484 1483 1482 1481 1480 1480 1479 1479 1478 1478 1478 1478 1477 1477 1477 1477 1477 1477 1478 1478 1479
1540 1535 1528 1519 1519 1518 1520 1516 1509 1509 1507 1506 1505 1505 1501 1498 1496 1494 1492 1490 1488 1486 1484 1482 1481 1480 1479 1478 1477 1476 1476 1476 1476 1476 1475 1475 1475 1474 1475 1475 1474 1475 1475 1476
1538 1537 1527 1519 1518 1518 1522 1514 1508 1507 1505 1505 1504 1503 1500 1496 1494 1493 1490 1488 1486 1484 1482 1480 1479 1478 1476 1475 1475 1474 1474 1474 1474 1473 1473 1472 1472 1472 1472 1471 1471 1471 1471 1472
1538 1537 1526 1517 1516 1518 1514 1509 1507 1505 1504 1503 1501 1499 1497 1495 1492 1490 1487 1485 1483 1481 1479 1478 1477 1476 1474 1473 1473 1472 1472 1471 1471 1470 1470 1469 1469 1469 1469 1468 1468 1468 1468 1468
1528 1521 1514 1512 1510 1509 1509 1507 1505 1504 1503 1501 1499 1497 1494 1492 1490 1488 1486 1484 1481 1479 1477 1476 1475 1474 1472 1471 1471 1470 1469 1468 1468 1467 1467 1466 1466 1466 1465 1465 1465 1465 1464 1464
1522 1513 1510 1509 1508 1507 1506 1505 1503 1502 1501 1499 1497 1495 1492 1490 1488 1486 1483 1481 1479 1477 1475 1473 1473 1472 1471 1470 1469 1468 1467 1466 1465 1465 1464 1463 1463 1463 1463 1462 1462 1462 1461 1461
1517 1510 1507 1505 1505 1504 1503 1502 1501 1500 1498 1496 1494 1492 1490 1488 1486 1484 1481 1479 1477 1475 1473 1472 1471 1470 1469 1468 1466 1465 1464 1464 1463 1462 1462 1461 1460 1461 1460 1460 1460 1460 1459 1459
1509 1505 1505 1503 1502 1502 1501 1500 1499 1497 1495 1494 1492 1490 1488 1486 1484 1482 1479 1477 1475 1473 1471 1470 1468 1467 1466 1465 1464 1463 1462 1461 1461 1460 1459 1459 1458 1458 1457 1458 1457 1457 1457 1457
1503 1502 1501 1500 1500 1499 1498 1497 1496 1495 1493 1491 1490 1488 1486 1484 1482 1480 1477 1475 1473 1471 1469 1468 1466 1464 1464 1463 1462 1461 1460 1459 1459 1458 1457 1456 1456 1455 1455 1455 1455 1455 1454 1453
1500 1500 1499 1498 1497 1497 1496 1494 1493 1492 1490 1489 1487 1485 1483 1481 1479 1477 1475 1473 1471 1469 1468 1466 1464 1462 1462 1460 1459 1459 1458 1457 1456 1456 1455 1455 1454 1454 1453 1453 1452 1451 1452 1451
1497 1497 1497 1496 1495 1494 1493 1491 1490 1489 1487 1486 1485 1483 1481 1479 1477 1475 1473 1471 1469 1467 1466 1464 1462 1461 1460 1459 1457 1456 1456 1455 1454 1454 1454 1453 1453 1452 1452 1451 1450 1449 1449 1448
1495 1494 1494 1493 1492 1491 1490 1489 1487 1485 1484 1483 1481 1480 1478 1476 1474 1472 1471 1469 1467 1465 1464 1462 1460 1459 1458 1457 1456 1454 1454 1453 1453 1452 1452 1451 1450 1450 1449 1449 1448 1447 1446 1446
1492 1491 1491 1490 1489 1488 1488 1486 1485 1483 1481 1480 1479 1477 1475 1474 1472 1470 1468 1467 1465 1463 1462 1460 1459 1458 1456 1455 1454 1453 1452 1452 1451 1451 1450 1449 1449 1448 1448 1447 1446 1445 1445 1445
1490 1490 1489 1489 1487 1486 1485 1483 1482 1480 1479 1477 1476 1474 1473 1471 1469 1467 1466 1464 1463 1461 1460 1458 1457 1456 1454 1453 1452 1451 1451 1450 1449 1449 1448 1447 1447 1446 1446 1445 1444 1444 1443 1443
1487 1487 1487 1486 1485 1484 1482 1481 1479 1478 1476 1475 1473 1471 1470 1469 1467 1465 1464 1462 1460 1458 1457 1456 1455 1454 1453 1452 1451 1450 1449 1448 1448 1447 1447 1446 1445 1444 1444 1443 1442 1442 1441 1440
1486 1485 1484 1484 1483 1482 1480 1478 1477 1475 1474 1472 1470 1469 1467 1466 1465 1463 1461 1459 1458 1456 1455 1454 1452 1451 1450 1450 1449 1448 1447 1447 1446 1445 1445 1444 1443 1442 1442 1441 1440 1440 1439 1438
1483 1483 1482 1481 1480 1479 1478 1476 1475 1473 1471 1470 1468 1466 1465 1463 1462 1460 1458 1456 1455 1454 1452 1451 1450 1449 1448 1447 1447 1446 1445 1445 1444 1443 1443 1442 1441 1440 1439 1439 1438 1437 1437 1436
1481 1480 1479 1478 1477 1476 1475 1474 1472 1470 1469 1467 1465 1464 1462 1460 1459 1457 1456 1454 1453 1451 1450 1448 1447 1447 1446 1445 1444 1444 1443 1442 1442 1441 1440 1440 1439 1438 1437 1436 1436 1435 1434 1433
1479 1478 1477 1476 1475 1473 1472 1471 1469 1468 1466 1464 1463 1461 1460 1458 1456 1455 1453 1452 1450 1449 1447 1446 1445 1444 1444 1443 1442 1441 1440 1440 1439 1439 1438 1437 1436 1436 1435 1434 1433 1432 1431 1430
1476 1475 1474 1473 1472 1470 1469 1468 1466 1465 1463 1462 1460 1459 1457 1455 1454 1452 1451 1449 1448 1446 1445 1444 1443 1442 1441 1440 1439 1438 1438 1437 1436 1436 1435 1434 1434 1433 1432 1431 1430 1429 1428 1427
1473 1472 1471 1470 1469 1467 1466 1465 1463 1461 1460 1459 1457 1456 1454 1453 1451 1450 1448 1447 1445 1444 1443 1442 1441 1440 1439 1437 1436 1436 1435 1434 1433 1433 1432 1431 1431 1430 1429 1428 1427 1426 1425 1424
1470 1469 1468 1467 1466 1465 1463 1462 1460 1459 1457 1456 1454 1453 1451 1450 1448 1447 1446 1444 1443 1442 1440 1439 1438 1437 1436 1435 1434 1433 1432 1431 1431 1430 1429 1428 1428 1427 1426 1425 1424 1423 1422 1421
1467 1466 1465 1464 1463 1462 1460 1459 1457 1456 1454 1453 1451 1450 1448 1447 1446 1444 1443 1442 1440 1439 1438 1437 1436 1434 1433 1432 1431 1430 1429 1429 1428 1427 1426 1425 1424 1423 1423 1422 1421 1420 1419 1417